Year,Month,Day,Hour,Minute,Value (Times are PST for temperature in C)
2014,07,26,09,48,18.20
2014,07,26,09,49,18.20
2014,07,26,09,50,18.20
2014,07,26,09,51,18.20
2014,07,26,09,52,18.20
2014,07,26,09,53,18.20
2014,07,26,09,54,18.20
2014,07,26,09,55,18.20
2014,07,26,09,56,18.20
2014,07,26,09,57,18.20
2014,07,26,09,58,18.20
2014,07,26,09,59,18.20
2014,07,26,10,00,18.20
2014,07,26,10,01,18.20
2014,07,26,10,02,18.30
2014,07,26,10,03,18.40
2014,07,26,10,04,18.50
2014,07,26,10,05,18.50
2014,07,26,10,06,18.60
2014,07,26,10,07,18.60
2014,07,26,10,08,18.60
2014,07,26,10,09,18.70
2014,07,26,10,10,18.70
2014,07,26,10,11,18.70
2014,07,26,10,12,18.70
2014,07,26,10,13,18.70
2014,07,26,10,14,18.80
2014,07,26,10,15,18.90
2014,07,26,10,16,18.90
2014,07,26,10,17,18.90
2014,07,26,10,18,18.90
2014,07,26,10,19,18.80
2014,07,26,10,20,18.80
2014,07,26,10,21,18.80
2014,07,26,10,22,18.80
2014,07,26,10,23,18.90
2014,07,26,10,24,18.90
2014,07,26,10,25,19.00
2014,07,26,10,26,19.10
2014,07,26,10,27,19.10
2014,07,26,10,28,19.30
2014,07,26,10,29,19.30
2014,07,26,10,30,19.30
2014,07,26,10,31,19.30
2014,07,26,10,32,19.30
2014,07,26,10,33,19.30
2014,07,26,10,34,19.40
2014,07,26,10,35,19.40
2014,07,26,10,36,19.50
2014,07,26,10,37,19.60
2014,07,26,10,38,19.70
2014,07,26,10,39,19.80
2014,07,26,10,40,19.80
2014,07,26,10,41,19.70
2014,07,26,10,42,19.60
2014,07,26,10,43,19.60
2014,07,26,10,44,19.60
2014,07,26,10,45,19.50
2014,07,26,10,46,19.40
2014,07,26,10,47,19.30
2014,07,26,10,48,19.30
2014,07,26,10,49,19.40
2014,07,26,10,50,19.50
2014,07,26,10,51,19.60
2014,07,26,10,52,19.80
2014,07,26,10,53,19.80
2014,07,26,10,54,19.90
2014,07,26,10,55,19.90
2014,07,26,10,56,20.00
2014,07,26,10,57,20.10
2014,07,26,10,58,20.10
2014,07,26,10,59,20.10
2014,07,26,11,00,20.10
2014,07,26,11,01,20.10
2014,07,26,11,02,20.20
2014,07,26,11,03,20.20
2014,07,26,11,04,20.20
2014,07,26,11,05,20.20
2014,07,26,11,06,20.20
2014,07,26,11,07,20.20
2014,07,26,11,08,20.20
2014,07,26,11,09,20.20
2014,07,26,11,10,20.20
2014,07,26,11,11,20.20
2014,07,26,11,12,20.20
2014,07,26,11,13,20.40
2014,07,26,11,14,20.50
2014,07,26,11,15,20.50
2014,07,26,11,16,20.40
2014,07,26,11,17,20.20
2014,07,26,11,18,20.20
2014,07,26,11,19,20.20
2014,07,26,11,20,20.20
2014,07,26,11,21,20.30
2014,07,26,11,22,20.20
2014,07,26,11,23,20.10
2014,07,26,11,24,19.90
2014,07,26,11,25,19.80
2014,07,26,11,26,19.70
2014,07,26,11,27,19.80
2014,07,26,11,28,19.70
2014,07,26,11,29,19.60
2014,07,26,11,30,19.60
2014,07,26,11,31,19.70
2014,07,26,11,32,19.90
2014,07,26,11,33,20.10
2014,07,26,11,34,20.30
2014,07,26,11,35,20.40
2014,07,26,11,36,20.50
2014,07,26,11,37,20.60
2014,07,26,11,38,20.50
2014,07,26,11,39,20.40
2014,07,26,11,40,20.40
2014,07,26,11,41,20.40
2014,07,26,11,42,20.40
2014,07,26,11,43,20.30
2014,07,26,11,44,20.30
2014,07,26,11,45,20.30
2014,07,26,11,46,20.30
2014,07,26,11,47,20.40
2014,07,26,11,48,20.40
2014,07,26,11,49,20.50
2014,07,26,11,50,20.60
2014,07,26,11,51,20.60
2014,07,26,11,52,20.70
2014,07,26,11,53,20.90
2014,07,26,11,54,21.00
2014,07,26,11,55,21.00
2014,07,26,11,56,20.90
2014,07,26,11,57,20.90
2014,07,26,11,58,20.90
2014,07,26,11,59,21.00
2014,07,26,12,00,20.90
2014,07,26,12,01,20.90
2014,07,26,12,02,20.90
2014,07,26,12,03,20.80
2014,07,26,12,04,20.90
2014,07,26,12,05,20.90
2014,07,26,12,06,21.00
2014,07,26,12,07,20.90
2014,07,26,12,08,20.80
2014,07,26,12,09,20.70
2014,07,26,12,10,20.60
2014,07,26,12,11,20.60
2014,07,26,12,12,20.70
2014,07,26,12,13,20.60
2014,07,26,12,14,20.50
2014,07,26,12,15,20.50
2014,07,26,12,16,20.50
2014,07,26,12,17,20.50
2014,07,26,12,18,20.60
2014,07,26,12,19,20.60
2014,07,26,12,20,20.70
2014,07,26,12,21,20.60
2014,07,26,12,22,20.40
2014,07,26,12,23,20.30
2014,07,26,12,24,20.30
2014,07,26,12,25,20.40
2014,07,26,12,26,20.40
2014,07,26,12,27,20.30
2014,07,26,12,28,20.20
2014,07,26,12,29,20.20
2014,07,26,12,30,20.20
2014,07,26,12,31,20.20
2014,07,26,12,32,20.20
2014,07,26,12,33,20.20
2014,07,26,12,34,20.20
2014,07,26,12,35,20.40
2014,07,26,12,36,20.50
2014,07,26,12,37,20.70
2014,07,26,12,38,20.80
2014,07,26,12,39,20.90
2014,07,26,12,40,21.00
2014,07,26,12,41,21.20
2014,07,26,12,42,21.30
2014,07,26,12,43,21.40
2014,07,26,12,44,21.60
2014,07,26,12,45,21.60
2014,07,26,12,46,21.60
2014,07,26,12,47,21.50
2014,07,26,12,48,21.50
2014,07,26,12,49,21.60
2014,07,26,12,50,21.70
2014,07,26,12,51,21.80
2014,07,26,12,52,21.90
2014,07,26,12,53,21.90
2014,07,26,12,54,21.90
2014,07,26,12,55,21.90
2014,07,26,12,56,21.80
2014,07,26,12,57,21.70
2014,07,26,12,58,21.70
2014,07,26,12,59,21.70
2014,07,26,13,00,21.60
2014,07,26,13,01,21.60
2014,07,26,13,02,21.40
2014,07,26,13,03,21.30
2014,07,26,13,04,21.30
2014,07,26,13,05,21.30
2014,07,26,13,06,21.20
2014,07,26,13,07,21.20
2014,07,26,13,08,21.10
2014,07,26,13,09,21.20
2014,07,26,13,10,21.30
2014,07,26,13,11,21.30
2014,07,26,13,12,21.30
2014,07,26,13,13,21.40
2014,07,26,13,14,21.40
2014,07,26,13,15,21.60
2014,07,26,13,16,21.50
2014,07,26,13,17,21.40
2014,07,26,13,18,21.50
2014,07,26,13,19,21.60
2014,07,26,13,20,21.60
2014,07,26,13,21,21.60
2014,07,26,13,22,21.60
2014,07,26,13,23,21.60
2014,07,26,13,24,21.50
2014,07,26,13,25,21.40
2014,07,26,13,26,21.40
2014,07,26,13,27,21.40
2014,07,26,13,28,21.30
2014,07,26,13,29,21.30
2014,07,26,13,30,21.30
2014,07,26,13,31,21.20
2014,07,26,13,32,21.30
2014,07,26,13,33,21.30
2014,07,26,13,34,21.40
2014,07,26,13,35,21.50
2014,07,26,13,36,21.60
2014,07,26,13,37,21.80
2014,07,26,13,38,21.80
2014,07,26,13,39,21.90
2014,07,26,13,40,22.00
2014,07,26,13,41,22.00
2014,07,26,13,42,22.00
2014,07,26,13,43,22.00
2014,07,26,13,44,22.00
2014,07,26,13,45,22.10
2014,07,26,13,46,22.10
2014,07,26,13,47,22.20
2014,07,26,13,48,22.30
2014,07,26,13,49,22.10
2014,07,26,13,50,21.90
2014,07,26,13,51,21.80
2014,07,26,13,52,21.90
2014,07,26,13,53,21.90
2014,07,26,13,54,21.90
2014,07,26,13,55,21.90
2014,07,26,13,56,22.00
2014,07,26,13,57,22.10
2014,07,26,13,58,22.10
2014,07,26,13,59,22.10
2014,07,26,14,00,22.00
2014,07,26,14,01,22.10
2014,07,26,14,02,22.20
2014,07,26,14,03,22.30
2014,07,26,14,04,22.30
2014,07,26,14,05,22.40
2014,07,26,14,06,22.40
2014,07,26,14,07,22.40
2014,07,26,14,08,22.40
2014,07,26,14,09,22.50
2014,07,26,14,10,22.50
2014,07,26,14,11,22.30
2014,07,26,14,12,22.20
2014,07,26,14,13,22.10
2014,07,26,14,14,22.20
2014,07,26,14,15,22.30
2014,07,26,14,16,22.30
2014,07,26,14,17,22.20
2014,07,26,14,18,22.20
2014,07,26,14,19,22.20
2014,07,26,14,20,22.30
2014,07,26,14,21,22.40
2014,07,26,14,22,22.50
2014,07,26,14,23,22.50
2014,07,26,14,24,22.60
2014,07,26,14,25,22.60
2014,07,26,14,26,22.60
2014,07,26,14,27,22.60
2014,07,26,14,28,22.60
2014,07,26,14,29,22.60
2014,07,26,14,30,22.60
2014,07,26,14,31,22.40
2014,07,26,14,32,22.30
2014,07,26,14,33,22.50
2014,07,26,14,34,22.60
2014,07,26,14,35,22.60
2014,07,26,14,36,22.60
2014,07,26,14,37,22.40
2014,07,26,14,38,22.30
2014,07,26,14,39,22.30
2014,07,26,14,40,22.30
2014,07,26,14,41,22.20
2014,07,26,14,42,22.30
2014,07,26,14,43,22.30
2014,07,26,14,44,22.30
2014,07,26,14,45,22.30
2014,07,26,14,46,22.20
2014,07,26,14,47,22.20
2014,07,26,14,48,22.30
2014,07,26,14,49,22.40
2014,07,26,14,50,22.40
2014,07,26,14,51,22.50
2014,07,26,14,52,22.50
2014,07,26,14,53,22.50
2014,07,26,14,54,22.60
2014,07,26,14,55,22.60
2014,07,26,14,56,22.70
2014,07,26,14,57,22.80
2014,07,26,14,58,22.80
2014,07,26,14,59,22.90
2014,07,26,15,00,22.90
2014,07,26,15,01,22.90
2014,07,26,15,02,22.90
2014,07,26,15,03,22.80
2014,07,26,15,04,22.80
2014,07,26,15,05,22.70
2014,07,26,15,06,22.60
2014,07,26,15,07,22.70
2014,07,26,15,08,22.70
2014,07,26,15,09,22.70
2014,07,26,15,10,22.80
2014,07,26,15,11,22.70
2014,07,26,15,12,22.70
2014,07,26,15,13,22.70
2014,07,26,15,14,22.70
2014,07,26,15,15,22.60
2014,07,26,15,16,22.50
2014,07,26,15,17,22.40
2014,07,26,15,18,22.50
2014,07,26,15,19,22.60
2014,07,26,15,20,22.70
2014,07,26,15,21,22.70
2014,07,26,15,22,22.70
2014,07,26,15,23,22.60
2014,07,26,15,24,22.60
2014,07,26,15,25,22.60
2014,07,26,15,26,22.70
2014,07,26,15,27,22.70
2014,07,26,15,28,22.50
2014,07,26,15,29,22.50
2014,07,26,15,30,22.40
2014,07,26,15,31,22.50
2014,07,26,15,32,22.50
2014,07,26,15,33,22.50
2014,07,26,15,34,22.60
2014,07,26,15,35,22.60
2014,07,26,15,36,22.60
2014,07,26,15,37,22.60
2014,07,26,15,38,22.70
2014,07,26,15,39,22.80
2014,07,26,15,40,23.00
2014,07,26,15,41,23.10
2014,07,26,15,42,23.10
2014,07,26,15,43,23.00
2014,07,26,15,44,22.90
2014,07,26,15,45,22.90
2014,07,26,15,46,22.90
2014,07,26,15,47,23.00
2014,07,26,15,48,23.10
2014,07,26,15,49,23.00
2014,07,26,15,50,22.90
2014,07,26,15,51,22.90
2014,07,26,15,52,22.80
2014,07,26,15,53,22.70
2014,07,26,15,54,22.70
2014,07,26,15,55,22.70
2014,07,26,15,56,22.80
2014,07,26,15,57,22.90
2014,07,26,15,58,22.80
2014,07,26,15,59,22.80
2014,07,26,16,00,22.80
2014,07,26,16,01,22.70
2014,07,26,16,02,22.70
2014,07,26,16,03,22.80
2014,07,26,16,04,22.70
2014,07,26,16,05,22.60
2014,07,26,16,06,22.60
2014,07,26,16,07,22.60
2014,07,26,16,08,22.50
2014,07,26,16,09,22.40
2014,07,26,16,10,22.30
2014,07,26,16,11,22.20
2014,07,26,16,12,22.20
2014,07,26,16,13,22.20
2014,07,26,16,14,22.30
2014,07,26,16,15,22.40
2014,07,26,16,16,22.60
2014,07,26,16,17,22.70
2014,07,26,16,18,22.70
2014,07,26,16,19,22.60
2014,07,26,16,20,22.50
2014,07,26,16,21,22.40
2014,07,26,16,22,22.30
2014,07,26,16,23,22.30
2014,07,26,16,24,22.30
2014,07,26,16,25,22.30
2014,07,26,16,26,22.40
2014,07,26,16,27,22.40
2014,07,26,16,28,22.40
2014,07,26,16,29,22.50
2014,07,26,16,30,22.50
2014,07,26,16,31,22.60
2014,07,26,16,32,22.60
2014,07,26,16,33,22.60
2014,07,26,16,34,22.50
2014,07,26,16,35,22.50
2014,07,26,16,36,22.60
2014,07,26,16,37,22.60
2014,07,26,16,38,22.70
2014,07,26,16,39,22.80
2014,07,26,16,40,22.90
2014,07,26,16,41,22.90
2014,07,26,16,42,22.90
2014,07,26,16,43,22.80
2014,07,26,16,44,22.90
2014,07,26,16,45,22.90
2014,07,26,16,46,22.90
2014,07,26,16,47,22.90
2014,07,26,16,48,23.00
2014,07,26,16,49,23.00
2014,07,26,16,50,22.90
2014,07,26,16,51,22.80
2014,07,26,16,52,22.70
2014,07,26,16,53,22.70
2014,07,26,16,54,22.70
2014,07,26,16,55,22.70
2014,07,26,16,56,22.70
2014,07,26,16,57,22.80
2014,07,26,16,58,22.80
2014,07,26,16,59,22.90
2014,07,26,17,00,22.90
2014,07,26,17,01,22.90
2014,07,26,17,02,22.90
2014,07,26,17,03,22.70
2014,07,26,17,04,22.60
2014,07,26,17,05,22.60
2014,07,26,17,06,22.60
2014,07,26,17,07,22.60
2014,07,26,17,08,22.60
2014,07,26,17,09,22.70
2014,07,26,17,10,22.70
2014,07,26,17,11,22.70
2014,07,26,17,12,22.70
2014,07,26,17,13,22.70
2014,07,26,17,14,22.70
2014,07,26,17,15,22.80
2014,07,26,17,16,22.80
2014,07,26,17,17,22.80
2014,07,26,17,18,22.90
2014,07,26,17,19,22.90
2014,07,26,17,20,22.90
2014,07,26,17,21,22.90
2014,07,26,17,22,22.90
2014,07,26,17,23,23.00
2014,07,26,17,24,23.10
2014,07,26,17,25,23.20
2014,07,26,17,26,23.20
2014,07,26,17,27,23.20
2014,07,26,17,28,23.20
2014,07,26,17,29,23.40
2014,07,26,17,30,23.50
2014,07,26,17,31,23.60
2014,07,26,17,32,23.70
2014,07,26,17,33,23.70
2014,07,26,17,34,23.50
2014,07,26,17,35,23.40
2014,07,26,17,36,23.30
2014,07,26,17,37,23.30
2014,07,26,17,38,23.30
2014,07,26,17,39,23.40
2014,07,26,17,40,23.60
2014,07,26,17,41,23.70
2014,07,26,17,42,23.70
2014,07,26,17,43,23.70
2014,07,26,17,44,23.70
2014,07,26,17,45,23.70
2014,07,26,17,46,23.70
2014,07,26,17,47,23.70
2014,07,26,17,48,23.70
2014,07,26,17,49,23.70
2014,07,26,17,50,23.70
2014,07,26,17,51,23.60
2014,07,26,17,52,23.60
2014,07,26,17,53,23.40
2014,07,26,17,54,23.40
2014,07,26,17,55,23.40
2014,07,26,17,56,23.30
2014,07,26,17,57,23.20
2014,07,26,17,58,23.20
2014,07,26,17,59,23.20
2014,07,26,18,00,23.20
2014,07,26,18,01,23.30
2014,07,26,18,02,23.30
2014,07,26,18,03,23.30
2014,07,26,18,04,23.30
2014,07,26,18,05,23.30
2014,07,26,18,06,23.40
2014,07,26,18,07,23.40
2014,07,26,18,08,23.40
2014,07,26,18,09,23.40
2014,07,26,18,10,23.50
2014,07,26,18,11,23.60
2014,07,26,18,12,23.40
2014,07,26,18,13,23.40
2014,07,26,18,14,23.40
2014,07,26,18,15,23.40
2014,07,26,18,16,23.40
2014,07,26,18,17,23.40
2014,07,26,18,18,23.30
2014,07,26,18,19,23.40
2014,07,26,18,20,23.40
2014,07,26,18,21,23.50
2014,07,26,18,22,23.60
2014,07,26,18,23,23.60
2014,07,26,18,24,23.70
2014,07,26,18,25,23.60
2014,07,26,18,26,23.40
2014,07,26,18,27,23.30
2014,07,26,18,28,23.30
2014,07,26,18,29,23.30
2014,07,26,18,30,23.30
2014,07,26,18,31,23.20
2014,07,26,18,32,23.20
2014,07,26,18,33,23.30
2014,07,26,18,34,23.20
2014,07,26,18,35,23.20
2014,07,26,18,36,23.30
2014,07,26,18,37,23.30
2014,07,26,18,38,23.30
2014,07,26,18,39,23.30
2014,07,26,18,40,23.30
2014,07,26,18,41,23.20
2014,07,26,18,42,23.30
2014,07,26,18,43,23.30
2014,07,26,18,44,23.30
2014,07,26,18,45,23.30
2014,07,26,18,46,23.20
2014,07,26,18,47,23.20
2014,07,26,18,48,23.10
2014,07,26,18,49,23.10
2014,07,26,18,50,23.10
2014,07,26,18,51,23.10
2014,07,26,18,52,22.90
2014,07,26,18,53,22.90
2014,07,26,18,54,22.70
2014,07,26,18,55,22.60
2014,07,26,18,56,22.50
2014,07,26,18,57,22.50
2014,07,26,18,58,22.40
2014,07,26,18,59,22.30
2014,07,26,19,00,22.20
2014,07,26,19,01,22.30
2014,07,26,19,02,22.30
2014,07,26,19,03,22.30
2014,07,26,19,04,22.30
2014,07,26,19,05,22.40
2014,07,26,19,06,22.50
2014,07,26,19,07,22.50
2014,07,26,19,08,22.50
2014,07,26,19,09,22.40
2014,07,26,19,10,22.30
2014,07,26,19,11,22.20
2014,07,26,19,12,22.10
2014,07,26,19,13,22.00
2014,07,26,19,14,21.90
2014,07,26,19,15,21.90
2014,07,26,19,16,21.90
2014,07,26,19,17,22.00
2014,07,26,19,18,22.00
2014,07,26,19,19,22.00
2014,07,26,19,20,21.90
2014,07,26,19,21,21.80
2014,07,26,19,22,21.80
2014,07,26,19,23,21.80
2014,07,26,19,24,21.90
2014,07,26,19,25,21.90
2014,07,26,19,26,21.90
2014,07,26,19,27,21.90
2014,07,26,19,28,21.90
2014,07,26,19,29,21.90
2014,07,26,19,30,21.90
2014,07,26,19,31,21.80
2014,07,26,19,32,21.70
2014,07,26,19,33,21.60
2014,07,26,19,34,21.60
2014,07,26,19,35,21.70
2014,07,26,19,36,21.60
2014,07,26,19,37,21.60
2014,07,26,19,38,21.60
2014,07,26,19,39,21.60
2014,07,26,19,40,21.60
2014,07,26,19,41,21.60
2014,07,26,19,42,21.60
2014,07,26,19,43,21.60
2014,07,26,19,44,21.60
2014,07,26,19,45,21.60
2014,07,26,19,46,21.60
2014,07,26,19,47,21.60
2014,07,26,19,48,21.60
2014,07,26,19,49,21.60
2014,07,26,19,50,21.60
